Home > Weather > Loughton > Past weeks

Flag for United Kingdom Weather for the Past 2 Weeks in Loughton, England, United Kingdom

Now
40 °F

Quite cool.


Feels Like: 32 °F
Forecast: 36 / 43 °F
Wind: 17 mph from East

Location: Gravesend-Broadness

Current Time: Feb 13, 2016 at 11:33:30 AM

Latest Report: Feb 13, 2016 at 10:00 AM


Visibility: N/A

Pressure: 29.06 "Hg

Humidity: 84%

Dew point: 36 °F

Location of LoughtonLocation

Historic Weather in Loughton — Graph

°F

Loughton Temperature Yesterday

Maximum temperature yesterday: 42 °F (at 3:00 PM)
Minimum temperature yesterday: 35 °F (at 3:00 AM)
Average temperature yesterday: 39 °F

High & Low Weather Summary for the Past Weeks

 TemperatureHumidityPressure
High57 °F (Feb 1, 2:00 PM)100% (Jan 31, 11:00 AM)30.29 "Hg (Jan 31, 11:00 AM)
Low29 °F (Feb 11, 7:00 AM)47% (Feb 11, 3:00 PM)29.06 "Hg (Feb 7, 11:00 PM)
Average46 °F81%29.65 "Hg
* Reported Jan 29 10:00 AM — Feb 13 10:00 AM, Loughton, Weather by CustomWeather, © 2016

Note: Actual official high and low records may vary slightly from our data, if they occured in-between our weather recording intervals... More about our weather records

Advertising

Loughton Weather History for the Previous 24 Hours

 ConditionsComfort  
Time TempWeatherWind HumidityBarometerVisibility
10:00 AM
Sat, Feb 13
40 °FQuite cool.17 mph84%29.06 "HgN/A
9:00 AM39 °FChilly.15 mph89%29.09 "HgN/A
8:00 AM38 °FChilly.13 mph94%29.12 "HgN/A
7:00 AM37 °FChilly.12 mph97%29.15 "HgN/A
6:00 AM37 °FChilly.10 mph94%29.18 "HgN/A
5:00 AM36 °FChilly.8 mph95%29.23 "HgN/A
4:00 AM35 °FChilly.5 mph99%29.26 "HgN/A
1:00 AM35 °FChilly.6 mph98%29.32 "HgN/A
8:00 PM
Fri, Feb 12
40 °FChilly.7 mph91%29.38 "HgN/A
7:00 PM40 °FChilly.7 mph90%29.38 "HgN/A
6:00 PM41 °FQuite cool.8 mph85%29.38 "HgN/A
5:00 PM41 °FQuite cool.8 mph85%29.35 "HgN/A
4:00 PM42 °FQuite cool.12 mph85%29.35 "HgN/A
3:00 PM42 °FQuite cool.10 mph83%29.35 "HgN/A
2:00 PM41 °FQuite cool.8 mph84%29.35 "HgN/A
1:00 PM41 °FQuite cool.10 mph85%29.35 "HgN/A
12:00 PM40 °FQuite cool.9 mph88%29.35 "HgN/A
11:00 AM41 °FQuite cool.9 mph88%29.38 "HgN/A
Weather by CustomWeather, © 2016

See weather overviewHow to use our weather pages